Corbin, Kentucky, United States (40701)
Lat: 36.95N, Lon: 84.1W
Wx Zone: KYZ085
Local Info
Past Weather Observations for Today

NOTE: This archive is for the closest National Weather Service station to Corbin. Information may differ from the station used for current weather conditions.

Click here for Long-term Archive

Time Weather Temperature Dewpoint Humidity Pressure Winds Precip Visibility
21:53
Clear
Fog And Mist
63°F / 17°C 61°F / 16°C 94% 30.06 in
(1018 mb)
Calm - 6SM
20:53
Clear
64°F / 18°C 61°F / 16°C 88% 30.06 in
(1018 mb)
Calm - 8SM
19:53
Clear
68°F / 20°C 61°F / 16°C 78% 30.06 in
(1018 mb)
Calm - 10SM
18:53
Clear
72°F / 22°C 61°F / 16°C 69% 30.04 in
(1017 mb)
E 5.8 mph
(E 9 kph)
- 10SM
17:53
Mostly Cloudy
72°F / 22°C 61°F / 16°C 69% 30.04 in
(1017 mb)
NE 5.8 mph
(NE 9 kph)
- 10SM
16:53
Overcast
72°F / 22°C 61°F / 16°C 69% 30.06 in
(1018 mb)
NE 6.9 mph
(NE 11 kph)
- 10SM
16:46
Overcast
72°F / 22°C 61°F / 16°C 69% 30.06 in
(1018 mb)
NE 9.2 mph
(NE 15 kph)
- 10SM
15:53
Overcast
70°F / 21°C 61°F / 16°C 73% 30.04 in
(1017 mb)
N 10.4 mph
(N 17 kph)
- 10SM
15:41
Overcast
70°F / 21°C 63°F / 17°C 78% 30.04 in
(1017 mb)
N 10.4 mph
(N 17 kph)
- 10SM
15:23
Overcast
70°F / 21°C 63°F / 17°C 78% 30.04 in
(1017 mb)
N 10.4 mph
(N 17 kph)
- 10SM
14:53
Overcast
72°F / 22°C 63°F / 17°C 73% 30.04 in
(1017 mb)
N 9.2 mph
(N 15 kph)
- 10SM
13:53
Overcast
72°F / 22°C 64°F / 18°C 78% 30.04 in
(1017 mb)
N 11.5 mph
(N 19 kph)
- 10SM
13:14
Overcast
70°F / 21°C 64°F / 18°C 83% 30.04 in
(1017 mb)
N 10.4 mph
(N 17 kph)
- 10SM
12:53
Overcast
70°F / 21°C 64°F / 18°C 83% 30.04 in
(1017 mb)
NNW 11.5 mph
(NNW 19 kph)
- 10SM
11:53
Overcast
72°F / 22°C 66°F / 19°C 83% 30.04 in
(1017 mb)
N 8.1 mph
(N 13 kph)
0.15 in
(3.81 mm)
9SM
11:28
Overcast
Fog And Mist
72°F / 22°C 66°F / 19°C 83% 30.04 in
(1017 mb)
NW 10.4 mph
(NW 17 kph)
0.15 in
(3.81 mm)
6SM
11:14
Overcast
Light Rain
70°F / 21°C 66°F / 19°C 88% 30.01 in
(1016 mb)
NNW 9.2 mph
(NNW 15 kph)
0.15 in
(3.81 mm)
4SM
11:10
Overcast
Light Rain
70°F / 21°C 66°F / 19°C 88% 30.01 in
(1016 mb)
NNW 11.5 mph
(NNW 19 kph)
0.15 in
(3.81 mm)
1 1/4SM
11:03
Overcast
Heavy Rain
72°F / 22°C 66°F / 19°C 83% 30.01 in
(1016 mb)
NNW 10.4 mph
(NNW 17 kph)
0.14 in
(3.56 mm)
1SM
10:53
Overcast
Light Rain
73°F / 23°C 70°F / 21°C 89% 30.01 in
(1016 mb)
SSW 5.8 mph
(SSW 9 kph)
0.03 in
(0.76 mm)
2 1/2SM
09:53
Overcast
72°F / 22°C 70°F / 21°C 94% 30.01 in
(1016 mb)
SSW 4.6 mph
(SSW 7 kph)
0.02 in
(0.51 mm)
10SM
09:41
Overcast
72°F / 22°C 68°F / 20°C 88% 30.01 in
(1016 mb)
SSW 3.5 mph
(SSW 6 kph)
0.02 in
(0.51 mm)
10SM
09:25
Overcast
Light Rain
72°F / 22°C 68°F / 20°C 88% 30.01 in
(1016 mb)
SSW 5.8 mph
(SSW 9 kph)
0.02 in
(0.51 mm)
6SM
09:18
Overcast
Light Rain
72°F / 22°C 70°F / 21°C 94% 30.01 in
(1016 mb)
SSW 4.6 mph
(SSW 7 kph)
0.02 in
(0.51 mm)
2 1/2SM
09:01
Overcast
Light Rain
72°F / 22°C 68°F / 20°C 88% 30.01 in
(1016 mb)
SSW 6.9 mph
(SSW 11 kph)
0.00 in
(0.00 mm)
2 1/2SM
08:53
Overcast
Fog And Mist
72°F / 22°C 68°F / 20°C 88% 30.01 in
(1016 mb)
SSW 5.8 mph
(SSW 9 kph)
0.01 in
(0.25 mm)
3SM
08:26
Overcast
Light Rain
72°F / 22°C 68°F / 20°C 88% 30.01 in
(1016 mb)
SSW 3.5 mph
(SSW 6 kph)
0.01 in
(0.25 mm)
3SM
07:53
Overcast
Fog And Mist
70°F / 21°C 68°F / 20°C 94% 30.01 in
(1016 mb)
SW 4.6 mph
(SW 7 kph)
- 1 3/4SM
07:03
Overcast
Fog And Mist
70°F / 21°C 68°F / 20°C 94% 30.01 in
(1016 mb)
S 3.5 mph
(S 6 kph)
- 1 3/4SM
06:53
Overcast
Fog And Mist
70°F / 21°C 68°F / 20°C 94% 30.01 in
(1016 mb)
S 4.6 mph
(S 7 kph)
- 4SM
06:51
Overcast
Fog And Mist
70°F / 21°C 66°F / 19°C 88% 30.01 in
(1016 mb)
SSE 4.6 mph
(SSE 7 kph)
- 4SM
06:23
Overcast
Fog And Mist
70°F / 21°C 66°F / 19°C 88% 30.01 in
(1016 mb)
Calm - 6SM
06:13
Overcast
Fog And Mist
70°F / 21°C 66°F / 19°C 88% 29.98 in
(1015 mb)
Calm - 6SM
05:53
Overcast
Fog And Mist
70°F / 21°C 66°F / 19°C 88% 29.98 in
(1015 mb)
Calm - 6SM
05:24
Overcast
Fog And Mist
70°F / 21°C 66°F / 19°C 88% 29.98 in
(1015 mb)
Calm - 5SM
05:11
Overcast
Fog And Mist
70°F / 21°C 66°F / 19°C 88% 29.98 in
(1015 mb)
Calm - 2SM
05:01
Overcast
Fog And Mist
70°F / 21°C 66°F / 19°C 88% 29.98 in
(1015 mb)
S 3.5 mph
(S 6 kph)
- 3SM
04:53
Overcast
Fog And Mist
70°F / 21°C 66°F / 19°C 88% 29.98 in
(1015 mb)
Calm - 1 1/4SM
04:39
Obscured
Fog And Mist
70°F / 21°C 66°F / 19°C 88% 29.98 in
(1015 mb)
WNW 3.5 mph
(WNW 6 kph)
- 1SM
03:53
Obscured
Fog
70°F / 21°C 66°F / 19°C 88% 29.98 in
(1015 mb)
Calm - 1/2SM
03:14
Obscured
Fog
70°F / 21°C 66°F / 19°C 88% 29.98 in
(1015 mb)
Calm - 1/4SM
03:03
Mostly Cloudy
Fog And Mist
70°F / 21°C 66°F / 19°C 88% 29.98 in
(1015 mb)
Calm - 1 3/4SM
03:01
Mostly Cloudy
Fog And Mist
70°F / 21°C 66°F / 19°C 88% 29.98 in
(1015 mb)
Calm - 2 1/2SM
02:53
Partly Cloudy
Fog And Mist
70°F / 21°C 66°F / 19°C 88% 29.98 in
(1015 mb)
Calm - 4SM
01:53
Partly Cloudy
Fog And Mist
70°F / 21°C 66°F / 19°C 88% 29.98 in
(1015 mb)
Calm - 4SM
00:53
Partly Cloudy
Fog And Mist
70°F / 21°C 68°F / 20°C 94% 30.01 in
(1016 mb)
Calm - 6SM
Time Weather Temperature Dewpoint Humidity Pressure Winds Precip Visibility


Weather for websites

WeatherForYou.com, LLC is not responsible for any damages or problems caused by this service. Current weather conditions are obtained from the closest station including government and personal stations which may have varying degrees of accuracy. Weather forecasts are derived from the NOAA NDFD. Like all things, this site belongs to Jesus Christ... He just trusts me to maintain it. If you have any questions or comments email webmaster@weatherforyou.com

Copyright © 2014, WeatherForYou.com LLC. All rights reserved.